| time (UTC) | temp F | wind direction | speed MPH | gust MPH | rain 1hr in | rain 24hr in | rain mn in | humidity % | barometer mb |
| 20260902185036 | 92 | 277 | 5.0 | 14.0 | 0.00 | 0.00 | 0.00 | 58 | 1013.2 |
| 20260902184600 | 91 | 282 | 6.0 | 17.0 | 0.00 | 0.00 | 0.00 | 58 | 1013.3 |
| 20260902184035 | 91 | 268 | 6.0 | 17.0 | 0.00 | 0.00 | 0.00 | 59 | 1013.2 |
| 20260902183538 | 91 | 236 | 8.0 | 15.0 | 0.00 | 0.00 | 0.00 | 58 | 1013.3 |
| 20260902183101 | 91 | 322 | 7.0 | 15.0 | 0.00 | 0.00 | 0.00 | 60 | 1013.2 |
| 20260902182535 | 91 | 231 | 7.0 | 15.0 | 0.00 | 0.00 | 0.00 | 60 | 1013.2 |
| 20260902182037 | 91 | 247 | 8.0 | 16.0 | 0.00 | 0.00 | 0.00 | 60 | 1013.3 |
| 20260902181558 | 91 | 279 | 6.0 | 16.0 | 0.00 | 0.00 | 0.00 | 60 | 1013.4 |
| 20260902181037 | 91 | 202 | 4.0 | 11.0 | 0.00 | 0.00 | 0.00 | 63 | 1013.5 |
| 20260902180537 | 91 | 260 | 4.0 | 9.0 | 0.00 | 0.00 | 0.00 | 64 | 1013.6 |
| 20260902175537 | 89 | 242 | 4.0 | 10.0 | 0.00 | 0.00 | 0.00 | 66 | 1013.9 |
| 20260902175040 | 89 | 250 | 4.0 | 13.0 | 0.00 | 0.00 | 0.00 | 66 | 1014.1 |
| 20260902174607 | 89 | 236 | 6.0 | 13.0 | 0.00 | 0.00 | 0.00 | 66 | 1014.1 |
| 20260902174037 | 88 | 256 | 5.0 | 13.0 | 0.00 | 0.00 | 0.00 | 66 | 1014.3 |
| 20260902173536 | 88 | 134 | 6.0 | 13.0 | 0.00 | 0.00 | 0.00 | 66 | 1014.3 |
| 20260902173101 | 88 | 254 | 8.0 | 13.0 | 0.00 | 0.00 | 0.00 | 66 | 1014.3 |
| 20260902172536 | 88 | 309 | 5.0 | 14.0 | 0.00 | 0.00 | 0.00 | 67 | 1014.4 |
| 20260902172037 | 88 | 306 | 6.0 | 14.0 | 0.00 | 0.00 | 0.00 | 67 | 1014.5 |
| 20260902171607 | 87 | 289 | 6.0 | 13.0 | 0.00 | 0.00 | 0.00 | 68 | 1014.7 |
| 20260902171038 | 87 | 311 | 7.0 | 12.0 | 0.00 | 0.00 | 0.00 | 68 | 1014.9 |
| 20260902170537 | 86 | 302 | 5.0 | 11.0 | 0.00 | 0.00 | 0.00 | 69 | 1015.0 |
| 20260902170057 | 86 | 303 | 3.0 | 11.0 | 0.00 | 0.00 | 0.00 | 70 | 1015.0 |
| 20260902165538 | 86 | 314 | 6.0 | 12.0 | 0.00 | 0.00 | 0.00 | 70 | 1015.0 |
| 20260902165036 | 86 | 263 | 6.0 | 12.0 | 0.00 | 0.00 | 0.00 | 70 | 1015.0 |
| 20260902164555 | 85 | 294 | 5.0 | 13.0 | 0.00 | 0.00 | 0.00 | 70 | 1015.1 |
| 20260902164036 | 85 | 294 | 6.0 | 13.0 | 0.00 | 0.00 | 0.00 | 70 | 1015.1 |
| 20260902163537 | 85 | 259 | 7.0 | 13.0 | 0.00 | 0.00 | 0.00 | 69 | 1015.0 |
| 20260902163106 | 85 | 305 | 5.0 | 11.0 | 0.00 | 0.00 | 0.00 | 70 | 1015.1 |
| 20260902162538 | 85 | 284 | 3.0 | 12.0 | 0.00 | 0.00 | 0.00 | 72 | 1015.0 |
| 20260902162037 | 85 | 283 | 5.0 | 12.0 | 0.00 | 0.00 | 0.00 | 72 | 1015.0 |
| 20260902161604 | 85 | 258 | 5.0 | 12.0 | 0.00 | 0.00 | 0.00 | 73 | 1015.0 |
| 20260902161036 | 84 | 277 | 4.0 | 14.0 | 0.00 | 0.00 | 0.00 | 73 | 1015.1 |
| 20260902160538 | 84 | 252 | 7.0 | 14.0 | 0.00 | 0.00 | 0.00 | 73 | 1015.1 |
| 20260902160056 | 84 | 315 | 5.0 | 13.0 | 0.00 | 0.00 | 0.00 | 74 | 1015.2 |
| 20260902155537 | 84 | 294 | 6.0 | 13.0 | 0.00 | 0.00 | 0.00 | 74 | 1015.2 |
| 20260902155037 | 84 | 263 | 8.0 | 13.0 | 0.00 | 0.00 | 0.00 | 75 | 1015.1 |
| 20260902154600 | 84 | 296 | 6.0 | 14.0 | 0.00 | 0.00 | 0.00 | 75 | 1015.1 |
| 20260902154036 | 84 | 319 | 7.0 | 14.0 | 0.00 | 0.00 | 0.00 | 76 | 1015.0 |
| 20260902153536 | 84 | 325 | 7.0 | 14.0 | 0.00 | 0.00 | 0.00 | 76 | 1015.0 |
| 20260902153050 | 83 | 325 | 7.0 | 14.0 | 0.00 | 0.00 | 0.00 | 77 | 1014.9 |
| 20260902152537 | 83 | 305 | 7.0 | 14.0 | 0.00 | 0.00 | 0.00 | 78 | 1014.9 |
| 20260902152036 | 82 | 305 | 6.0 | 12.0 | 0.00 | 0.00 | 0.00 | 78 | 1015.0 |
| 20260902151556 | 82 | 317 | 4.0 | 11.0 | 0.00 | 0.00 | 0.00 | 79 | 1015.1 |
| 20260902151036 | 82 | 305 | 6.0 | 13.0 | 0.00 | 0.00 | 0.00 | 79 | 1015.0 |
| 20260902150535 | 82 | 294 | 6.0 | 13.0 | 0.00 | 0.00 | 0.00 | 80 | 1015.0 |
| 20260902150056 | 81 | 323 | 4.0 | 11.0 | 0.00 | 0.00 | 0.00 | 81 | 1015.0 |
| 20260902145536 | 81 | 324 | 6.0 | 11.0 | 0.00 | 0.00 | 0.00 | 81 | 1015.0 |
| 20260902145037 | 81 | 310 | 4.0 | 10.0 | 0.00 | 0.00 | 0.00 | 81 | 1015.0 |
| 20260902144616 | 80 | 276 | 5.0 | 10.0 | 0.00 | 0.00 | 0.00 | 81 | 1015.0 |
| 20260902144035 | 80 | 281 | 4.0 | 9.0 | 0.00 | 0.00 | 0.00 | 81 | 1015.0 |
| 20260902143536 | 80 | 281 | 4.0 | 10.0 | 0.00 | 0.00 | 0.00 | 82 | 1015.0 |
| 20260902143111 | 80 | 280 | 4.0 | 10.0 | 0.00 | 0.00 | 0.00 | 82 | 1014.9 |
| 20260902142535 | 80 | 284 | 4.0 | 12.0 | 0.00 | 0.00 | 0.00 | 82 | 1014.9 |
| 20260902142036 | 80 | 230 | 3.0 | 12.0 | 0.00 | 0.00 | 0.00 | 83 | 1014.8 |
| 20260902141557 | 79 | 288 | 3.0 | 9.0 | 0.00 | 0.00 | 0.00 | 83 | 1014.8 |
| 20260902141035 | 79 | 263 | 4.0 | 9.0 | 0.00 | 0.00 | 0.00 | 84 | 1014.7 |
| 20260902140536 | 79 | 250 | 3.0 | 9.0 | 0.00 | 0.00 | 0.00 | 84 | 1014.8 |
| 20260902140055 | 78 | 264 | 3.0 | 9.0 | 0.00 | 0.00 | 0.00 | 84 | 1014.8 |
| 20260902135536 | 78 | 282 | 4.0 | 8.0 | 0.00 | 0.00 | 0.00 | 85 | 1014.8 |
| 20260902135036 | 78 | 262 | 3.0 | 7.0 | 0.00 | 0.00 | 0.00 | 85 | 1014.8 |
| 20260902134602 | 78 | 254 | 2.0 | 7.0 | 0.00 | 0.00 | 0.00 | 85 | 1014.8 |
| 20260902134035 | 78 | 261 | 2.0 | 7.0 | 0.00 | 0.00 | 0.00 | 85 | 1014.7 |
| 20260902133535 | 78 | 290 | 3.0 | 8.0 | 0.00 | 0.00 | 0.00 | 85 | 1014.8 |
| 20260902133100 | 78 | 298 | 3.0 | 11.0 | 0.00 | 0.00 | 0.00 | 84 | 1014.8 |
| 20260902132538 | 79 | 284 | 3.0 | 11.0 | 0.00 | 0.00 | 0.00 | 84 | 1014.8 |
| 20260902132036 | 79 | 329 | 6.0 | 11.0 | 0.00 | 0.00 | 0.00 | 83 | 1014.8 |
| 20260902131559 | 79 | 308 | 5.0 | 11.0 | 0.00 | 0.00 | 0.00 | 83 | 1014.8 |
| 20260902131036 | 79 | 336 | 6.0 | 11.0 | 0.00 | 0.00 | 0.00 | 83 | 1014.8 |
| 20260902130535 | 78 | 355 | 7.0 | 12.0 | 0.00 | 0.00 | 0.00 | 83 | 1014.7 |
| 20260902130054 | 78 | 319 | 7.0 | 13.0 | 0.00 | 0.00 | 0.00 | 83 | 1014.7 |
| 20260902125536 | 78 | 321 | 6.0 | 13.0 | 0.00 | 0.00 | 0.00 | 83 | 1014.6 |
| 20260902125038 | 78 | 312 | 7.0 | 12.0 | 0.00 | 0.00 | 0.00 | 84 | 1014.6 |
| 20260902124554 | 78 | 348 | 6.0 | 9.0 | 0.00 | 0.00 | 0.00 | 84 | 1014.6 |
| 20260902124035 | 78 | 302 | 5.0 | 11.0 | 0.00 | 0.00 | 0.00 | 84 | 1014.5 |
| 20260902123538 | 78 | 336 | 6.0 | 11.0 | 0.00 | 0.00 | 0.00 | 84 | 1014.3 |
| 20260902123101 | 78 | 292 | 5.0 | 11.0 | 0.00 | 0.00 | 0.00 | 84 | 1014.3 |
| 20260902122536 | 78 | 319 | 5.0 | 11.0 | 0.00 | 0.00 | 0.00 | 84 | 1014.2 |
| 20260902122037 | 78 | 323 | 4.0 | 12.0 | 0.00 | 0.00 | 0.00 | 84 | 1014.2 |
| 20260902121607 | 78 | 336 | 5.0 | 12.0 | 0.00 | 0.00 | 0.00 | 84 | 1014.2 |
| 20260902121036 | 78 | 317 | 6.0 | 10.0 | 0.00 | 0.00 | 0.00 | 84 | 1014.1 |
| 20260902120537 | 78 | 329 | 5.0 | 10.0 | 0.00 | 0.00 | 0.00 | 84 | 1014.1 |
| 20260902115537 | 78 | 320 | 5.0 | 10.0 | 0.00 | 0.00 | 0.00 | 84 | 1014.1 |
| 20260902115037 | 78 | 282 | 6.0 | 10.0 | 0.00 | 0.00 | 0.00 | 84 | 1014.2 |
| 20260902114617 | 78 | 329 | 5.0 | 10.0 | 0.00 | 0.00 | 0.00 | 84 | 1014.3 |
| 20260902114035 | 78 | 311 | 5.0 | 10.0 | 0.00 | 0.00 | 0.00 | 84 | 1014.3 |
| 20260902113538 | 78 | 325 | 4.0 | 9.0 | 0.00 | 0.00 | 0.00 | 84 | 1014.3 |
| 20260902113100 | 78 | 329 | 6.0 | 9.0 | 0.00 | 0.00 | 0.00 | 84 | 1014.3 |
| 20260902112536 | 78 | 300 | 5.0 | 9.0 | 0.00 | 0.00 | 0.00 | 84 | 1014.3 |
| 20260902112037 | 77 | 304 | 4.0 | 10.0 | 0.00 | 0.00 | 0.00 | 85 | 1014.3 |
| 20260902111602 | 77 | 304 | 3.0 | 10.0 | 0.00 | 0.00 | 0.00 | 85 | 1014.2 |
| 20260902111038 | 77 | 294 | 5.0 | 9.0 | 0.00 | 0.00 | 0.00 | 85 | 1014.2 |
| 20260902110536 | 77 | 296 | 4.0 | 9.0 | 0.00 | 0.00 | 0.00 | 85 | 1014.2 |
| 20260902110058 | 77 | 306 | 3.0 | 9.0 | 0.00 | 0.00 | 0.00 | 85 | 1014.3 |
| 20260902105535 | 77 | 304 | 3.0 | 9.0 | 0.00 | 0.00 | 0.00 | 85 | 1014.3 |
| 20260902105036 | 77 | 271 | 5.0 | 9.0 | 0.00 | 0.00 | 0.00 | 85 | 1014.2 |
| 20260902104603 | 77 | 334 | 3.0 | 7.0 | 0.00 | 0.00 | 0.00 | 86 | 1014.2 |
| 20260902104037 | 77 | 294 | 3.0 | 8.0 | 0.00 | 0.00 | 0.00 | 86 | 1014.2 |
| 20260902103540 | 77 | 299 | 3.0 | 8.0 | 0.00 | 0.00 | 0.00 | 86 | 1014.2 |
| 20260902103117 | 77 | 294 | 2.0 | 7.0 | 0.00 | 0.00 | 0.00 | 86 | 1014.2 |
| 20260902102538 | 77 | 289 | 2.0 | 7.0 | 0.00 | 0.00 | 0.00 | 86 | 1014.2 |
| 20260902102036 | 77 | 270 | 2.0 | 7.0 | 0.00 | 0.00 | 0.00 | 86 | 1014.2 |
| 20260902101555 | 77 | 284 | 2.0 | 7.0 | 0.00 | 0.00 | 0.00 | 86 | 1014.2 |
| 20260902101037 | 77 | 279 | 2.0 | 7.0 | 0.00 | 0.00 | 0.00 | 86 | 1014.3 |
| 20260902100536 | 77 | 294 | 3.0 | 7.0 | 0.00 | 0.00 | 0.00 | 86 | 1014.2 |
| 20260902095535 | 77 | 292 | 3.0 | 8.0 | 0.00 | 0.00 | 0.00 | 86 | 1014.2 |
| 20260902095038 | 77 | 288 | 3.0 | 8.0 | 0.00 | 0.00 | 0.00 | 86 | 1014.2 |
| 20260902094556 | 77 | 296 | 2.0 | 6.0 | 0.00 | 0.00 | 0.00 | 86 | 1014.3 |
| 20260902094036 | 77 | 281 | 2.0 | 4.0 | 0.00 | 0.00 | 0.00 | 85 | 1014.2 |
| 20260902093539 | 77 | 281 | 2.0 | 9.0 | 0.00 | 0.00 | 0.00 | 85 | 1014.2 |
| 20260902093109 | 78 | 290 | 4.0 | 9.0 | 0.00 | 0.00 | 0.00 | 85 | 1014.2 |
| 20260902092536 | 78 | 275 | 3.0 | 9.0 | 0.00 | 0.00 | 0.00 | 85 | 1014.3 |
| 20260902092036 | 78 | 284 | 2.0 | 9.0 | 0.00 | 0.00 | 0.00 | 84 | 1014.2 |
| 20260902091557 | 78 | 305 | 4.0 | 9.0 | 0.00 | 0.00 | 0.00 | 84 | 1014.1 |
| 20260902091036 | 78 | 304 | 3.0 | 9.0 | 0.00 | 0.00 | 0.00 | 83 | 1014.2 |
| 20260902090536 | 78 | 298 | 5.0 | 9.0 | 0.00 | 0.00 | 0.00 | 83 | 1014.2 |
| 20260902090059 | 78 | 259 | 3.0 | 8.0 | 0.00 | 0.00 | 0.00 | 83 | 1014.2 |
| 20260902085535 | 78 | 288 | 3.0 | 7.0 | 0.00 | 0.00 | 0.00 | 82 | 1014.3 |
| 20260902085035 | 78 | 300 | 2.0 | 5.0 | 0.00 | 0.00 | 0.00 | 82 | 1014.3 |
| 20260902084600 | 78 | 314 | 2.0 | 5.0 | 0.00 | 0.00 | 0.00 | 82 | 1014.4 |
| 20260902084038 | 78 | 309 | 2.0 | 6.0 | 0.00 | 0.00 | 0.00 | 82 | 1014.4 |
| 20260902083536 | 78 | 309 | 3.0 | 8.0 | 0.00 | 0.00 | 0.00 | 82 | 1014.4 |
| 20260902083058 | 78 | 321 | 3.0 | 8.0 | 0.00 | 0.00 | 0.00 | 82 | 1014.2 |
| 20260902082535 | 78 | 321 | 2.0 | 5.0 | 0.00 | 0.00 | 0.00 | 82 | 1014.3 |
| 20260902082039 | 78 | 321 | 3.0 | 9.0 | 0.00 | 0.00 | 0.00 | 82 | 1014.2 |
| 20260902081556 | 78 | 343 | 4.0 | 9.0 | 0.00 | 0.00 | 0.00 | 82 | 1014.2 |
| 20260902081037 | 78 | 330 | 4.0 | 7.0 | 0.00 | 0.00 | 0.00 | 82 | 1014.2 |
| 20260902080537 | 78 | 274 | 3.0 | 7.0 | 0.00 | 0.00 | 0.00 | 82 | 1014.0 |
| 20260902080056 | 78 | 293 | 3.0 | 9.0 | 0.00 | 0.00 | 0.00 | 81 | 1014.0 |
| 20260902075537 | 78 | 327 | 3.0 | 9.0 | 0.00 | 0.00 | 0.00 | 81 | 1014.0 |
| 20260902075035 | 78 | 327 | 4.0 | 9.0 | 0.00 | 0.00 | 0.00 | 81 | 1014.1 |
| 20260902074604 | 78 | 328 | 3.0 | 9.0 | 0.00 | 0.00 | 0.00 | 81 | 1014.1 |
| 20260902074038 | 78 | 330 | 4.0 | 9.0 | 0.00 | 0.00 | 0.00 | 81 | 1014.2 |
| 20260902073535 | 78 | 328 | 5.0 | 9.0 | 0.00 | 0.00 | 0.00 | 81 | 1014.2 |
| 20260902073105 | 78 | 346 | 4.0 | 9.0 | 0.00 | 0.00 | 0.00 | 81 | 1014.2 |
| 20260902072536 | 78 | 344 | 4.0 | 10.0 | 0.00 | 0.00 | 0.00 | 81 | 1014.1 |
| 20260902072036 | 78 | 342 | 5.0 | 10.0 | 0.00 | 0.00 | 0.00 | 81 | 1014.1 |
| 20260902071603 | 78 | 331 | 5.0 | 9.0 | 0.00 | 0.00 | 0.00 | 81 | 1014.2 |
| 20260902071036 | 78 | 329 | 5.0 | 9.0 | 0.00 | 0.00 | 0.00 | 81 | 1014.2 |
| 20260902070535 | 78 | 326 | 4.0 | 10.0 | 0.00 | 0.00 | 0.00 | 81 | 1014.3 |
| 20260902070056 | 78 | 327 | 6.0 | 10.0 | 0.00 | 0.00 | 0.00 | 81 | 1014.5 |
| 20260902065536 | 78 | 336 | 3.0 | 8.0 | 0.00 | 0.00 | 0.00 | 81 | 1014.5 |
| 20260902065036 | 78 | 341 | 4.0 | 8.0 | 0.00 | 0.00 | 0.00 | 81 | 1014.5 |
| 20260902064554 | 78 | 316 | 3.0 | 7.0 | 0.00 | 0.00 | 0.00 | 81 | 1014.4 |
| 20260902064035 | 78 | 323 | 3.0 | 7.0 | 0.00 | 0.00 | 0.00 | 81 | 1014.5 |
| 20260902063539 | 78 | 315 | 4.0 | 7.0 | 0.00 | 0.00 | 0.00 | 81 | 1014.5 |
| 20260902063100 | 78 | 317 | 3.0 | 6.0 | 0.00 | 0.00 | 0.00 | 80 | 1014.5 |
| 20260902062536 | 78 | 322 | 3.0 | 6.0 | 0.00 | 0.00 | 0.00 | 80 | 1014.5 |
| 20260902062036 | 78 | 338 | 4.0 | 8.0 | 0.00 | 0.00 | 0.00 | 80 | 1014.5 |
| 20260902061559 | 78 | 340 | 3.0 | 8.0 | 0.00 | 0.00 | 0.00 | 80 | 1014.5 |
| 20260902061038 | 78 | 332 | 3.0 | 6.0 | 0.00 | 0.00 | 0.00 | 80 | 1014.6 |
| 20260902060536 | 78 | 317 | 3.0 | 5.0 | 0.00 | 0.00 | 0.00 | 80 | 1014.6 |
| 20260902060100 | 78 | 313 | 3.0 | 5.0 | 0.00 | 0.00 | 0.00 | 80 | 1014.6 |
| 20260902055536 | 78 | 311 | 3.0 | 4.0 | 0.00 | 0.00 | 0.00 | 80 | 1014.6 |
| 20260902055036 | 78 | 304 | 2.0 | 4.0 | 0.00 | 0.00 | 0.00 | 80 | 1014.6 |
| 20260902054601 | 78 | 302 | 2.0 | 4.0 | 0.00 | 0.00 | 0.00 | 80 | 1014.6 |
| 20260902054039 | 78 | 313 | 2.0 | 4.0 | 0.00 | 0.00 | 0.00 | 80 | 1014.6 |
| 20260902053539 | 78 | 313 | 2.0 | 4.0 | 0.00 | 0.00 | 0.00 | 81 | 1014.6 |
| 20260902053105 | 77 | 313 | 2.0 | 4.0 | 0.00 | 0.00 | 0.00 | 81 | 1014.5 |
| 20260902052539 | 77 | 5 | 1.0 | 3.0 | 0.00 | 0.00 | 0.00 | 81 | 1014.5 |
| 20260902052036 | 77 | 5 | 1.0 | 3.0 | 0.00 | 0.00 | 0.00 | 81 | 1014.6 |
| 20260902051559 | 77 | 5 | 1.0 | 4.0 | 0.00 | 0.00 | 0.00 | 81 | 1014.5 |
| 20260902051040 | 77 | 5 | 2.0 | 4.0 | 0.00 | 0.00 | 0.00 | 81 | 1014.6 |
| 20260902050536 | 77 | 5 | 2.0 | 4.0 | 0.00 | 0.00 | 0.00 | 81 | 1014.6 |
| 20260902050104 | 77 | 43 | 2.0 | 3.0 | 0.00 | 0.00 | 0.00 | 81 | 1014.7 |
| 20260902045535 | 77 | 43 | 2.0 | 3.0 | 0.00 | 0.00 | 0.00 | 79 | 1014.8 |
| 20260902045035 | 78 | 43 | 0.0 | 2.0 | 0.00 | 0.00 | 0.00 | 79 | 1014.8 |
| 20260902044552 | 78 | 0 | 0.0 | 2.0 | 0.00 | 0.00 | 0.00 | 78 | 1014.8 |
| 20260902044035 | 78 | 43 | 1.0 | 2.0 | 0.00 | 0.00 | 0.00 | 78 | 1014.8 |
| 20260902043535 | 78 | 0 | 0.0 | 3.0 | 0.00 | 0.00 | 0.00 | 78 | 1014.8 |
| 20260902043055 | 79 | 43 | 1.0 | 3.0 | 0.00 | 0.00 | 0.00 | 78 | 1014.7 |
| 20260902042536 | 79 | 43 | 1.0 | 3.0 | 0.00 | 0.00 | 0.00 | 78 | 1014.8 |
| 20260902042035 | 79 | 43 | 1.0 | 3.0 | 0.00 | 0.00 | 0.00 | 78 | 1014.8 |
| 20260902041559 | 79 | 43 | 1.0 | 3.0 | 0.00 | 0.00 | 0.00 | 77 | 1014.8 |
| 20260902041038 | 79 | 43 | 1.0 | 3.0 | 0.00 | 0.00 | 0.00 | 77 | 1014.7 |
| 20260902040538 | 79 | 43 | 1.0 | 4.0 | 0.00 | 0.00 | 0.00 | 77 | 1014.6 |
| 20260902040057 | 79 | 43 | 1.0 | 4.0 | 0.00 | 0.00 | 0.00 | 78 | 1014.7 |
| 20260902035535 | 79 | 43 | 2.0 | 4.0 | 0.00 | 0.00 | 0.00 | 78 | 1014.7 |
| 20260902035036 | 79 | 43 | 0.0 | 8.0 | 0.00 | 0.00 | 0.00 | 78 | 1014.7 |
| 20260902034604 | 79 | 0 | 0.0 | 8.0 | 0.00 | 0.00 | 0.00 | 79 | 1014.8 |
| 20260902034035 | 78 | 22 | 2.0 | 6.0 | 0.00 | 0.00 | 0.00 | 80 | 1014.7 |
| 20260902033535 | 78 | 76 | 1.0 | 4.0 | 0.00 | 0.00 | 0.00 | 80 | 1014.9 |
| 20260902033105 | 78 | 0 | 0.0 | 0.0 | 0.00 | 0.00 | 0.00 | 79 | 1014.9 |
| 20260902032536 | 78 | 0 | 0.0 | 0.0 | 0.00 | 0.00 | 0.00 | 79 | 1014.8 |
| 20260902032036 | 78 | 0 | 0.0 | 0.0 | 0.00 | 0.00 | 0.00 | 78 | 1014.7 |
| 20260902031603 | 79 | 0 | 0.0 | 0.0 | 0.00 | 0.00 | 0.00 | 79 | 1014.7 |
| 20260902031036 | 79 | 0 | 0.0 | 0.0 | 0.00 | 0.00 | 0.00 | 78 | 1014.7 |
| 20260902030538 | 79 | 0 | 0.0 | 0.0 | 0.00 | 0.00 | 0.00 | 77 | 1014.6 |
| 20260902030104 | 79 | 0 | 0.0 | 0.0 | 0.00 | 0.00 | 0.00 | 76 | 1014.6 |
| 20260902025536 | 80 | 0 | 0.0 | 0.0 | 0.00 | 0.00 | 0.00 | 76 | 1014.6 |
| 20260902025036 | 80 | 0 | 0.0 | 0.0 | 0.00 | 0.00 | 0.00 | 76 | 1014.5 |
| 20260902024601 | 80 | 0 | 0.0 | 0.0 | 0.00 | 0.00 | 0.00 | 76 | 1014.5 |
| 20260902024037 | 80 | 0 | 0.0 | 0.0 | 0.00 | 0.00 | 0.00 | 76 | 1014.4 |
| 20260902023539 | 80 | 0 | 0.0 | 0.0 | 0.00 | 0.00 | 0.00 | 76 | 1014.4 |
| 20260902023104 | 81 | 0 | 0.0 | 0.0 | 0.00 | 0.00 | 0.00 | 76 | 1014.4 |
| 20260902022535 | 81 | 0 | 0.0 | 0.0 | 0.00 | 0.00 | 0.00 | 75 | 1014.3 |
| 20260902022039 | 81 | 0 | 0.0 | 0.0 | 0.00 | 0.00 | 0.00 | 74 | 1014.3 |
| 20260902021556 | 82 | 0 | 0.0 | 0.0 | 0.00 | 0.00 | 0.00 | 74 | 1014.2 |
| 20260902021036 | 82 | 0 | 0.0 | 0.0 | 0.00 | 0.00 | 0.00 | 74 | 1014.1 |
| 20260902020535 | 82 | 0 | 0.0 | 0.0 | 0.00 | 0.00 | 0.00 | 73 | 1014.1 |
| 20260902020101 | 82 | 0 | 0.0 | 3.0 | 0.00 | 0.00 | 0.00 | 73 | 1014.0 |
| 20260902015538 | 83 | 0 | 0.0 | 3.0 | 0.00 | 0.00 | 0.00 | 73 | 1014.0 |
| 20260902015038 | 83 | 56 | 1.0 | 4.0 | 0.00 | 0.00 | 0.00 | 73 | 1013.9 |
| 20260902014557 | 83 | 0 | 2.0 | 4.0 | 0.00 | 0.00 | 0.00 | 73 | 1013.9 |
| 20260902014037 | 83 | 56 | 1.0 | 3.0 | 0.00 | 0.00 | 0.00 | 74 | 1013.8 |
| 20260902013537 | 83 | 0 | 0.0 | 3.0 | 0.00 | 0.00 | 0.00 | 73 | 1013.8 |
| 20260902013054 | 83 | 0 | 1.0 | 3.0 | 0.00 | 0.00 | 0.00 | 73 | 1013.6 |
| 20260902012535 | 83 | 56 | 1.0 | 3.0 | 0.00 | 0.00 | 0.00 | 74 | 1013.7 |
| 20260902012036 | 83 | 0 | 0.0 | 4.0 | 0.00 | 0.00 | 0.00 | 74 | 1013.7 |
| 20260902011553 | 84 | 56 | 0.0 | 4.0 | 0.00 | 0.00 | 0.00 | 74 | 1013.7 |
| 20260902011036 | 84 | 0 | 0.0 | 4.0 | 0.00 | 0.00 | 0.00 | 74 | 1013.8 |
| 20260902010536 | 84 | 0 | 0.0 | 4.0 | 0.00 | 0.00 | 0.00 | 74 | 1013.8 |
| 20260902010058 | 84 | 0 | 0.0 | 4.0 | 0.00 | 0.00 | 0.00 | 74 | 1013.8 |
| 20260902005536 | 84 | 0 | 1.0 | 6.0 | 0.00 | 0.00 | 0.00 | 74 | 1013.9 |
| 20260902005037 | 84 | 78 | 1.0 | 6.0 | 0.00 | 0.00 | 0.00 | 74 | 1013.9 |
| 20260902004601 | 84 | 37 | 2.0 | 6.0 | 0.00 | 0.00 | 0.00 | 75 | 1013.9 |
| 20260902004038 | 84 | 118 | 1.0 | 8.0 | 0.00 | 0.00 | 0.00 | 75 | 1014.0 |
| 20260902003536 | 84 | 103 | 2.0 | 8.0 | 0.00 | 0.00 | 0.00 | 75 | 1014.0 |
| 20260902003102 | 84 | 117 | 4.0 | 8.0 | 0.00 | 0.00 | 0.00 | 75 | 1013.9 |
| 20260902002535 | 84 | 150 | 2.0 | 8.0 | 0.00 | 0.00 | 0.00 | 75 | 1013.9 |
| 20260902002036 | 84 | 131 | 3.0 | 8.0 | 0.00 | 0.00 | 0.00 | 75 | 1013.9 |
| 20260902001606 | 84 | 118 | 4.0 | 8.0 | 0.00 | 0.00 | 0.00 | 75 | 1013.8 |
| 20260902001036 | 85 | 126 | 3.0 | 7.0 | 0.00 | 0.00 | 0.00 | 75 | 1013.8 |
| 20260902000535 | 85 | 128 | 2.0 | 8.0 | 0.00 | 0.00 | 0.00 | 75 | 1013.7 |
| 20260901235536 | 85 | 123 | 4.0 | 11.0 | 0.00 | 0.00 | 0.00 | 74 | 1013.7 |
| 20260901235035 | 85 | 151 | 6.0 | 11.0 | 0.00 | 0.00 | 0.00 | 74 | 1013.7 |
| 20260901234611 | 85 | 105 | 3.0 | 11.0 | 0.00 | 0.00 | 0.00 | 74 | 1013.6 |
| 20260901234036 | 85 | 148 | 7.0 | 11.0 | 0.00 | 0.00 | 0.00 | 73 | 1013.7 |
| 20260901233537 | 85 | 157 | 5.0 | 11.0 | 0.00 | 0.00 | 0.00 | 73 | 1013.6 |
| 20260901233103 | 85 | 168 | 6.0 | 14.0 | 0.00 | 0.00 | 0.00 | 73 | 1013.6 |
| 20260901232536 | 85 | 115 | 7.0 | 16.0 | 0.00 | 0.00 | 0.00 | 73 | 1013.6 |
| 20260901232036 | 86 | 148 | 7.0 | 16.0 | 0.00 | 0.00 | 0.00 | 73 | 1013.6 |
| 20260901231554 | 85 | 145 | 7.0 | 15.0 | 0.00 | 0.00 | 0.00 | 73 | 1013.8 |
| 20260901231035 | 85 | 112 | 6.0 | 15.0 | 0.00 | 0.00 | 0.00 | 73 | 1013.7 |
| 20260901230536 | 85 | 174 | 7.0 | 14.0 | 0.00 | 0.00 | 0.00 | 73 | 1013.8 |
| 20260901230101 | 85 | 136 | 7.0 | 14.0 | 0.00 | 0.00 | 0.00 | 73 | 1013.8 |
| 20260901225537 | 85 | 148 | 8.0 | 14.0 | 0.00 | 0.00 | 0.00 | 73 | 1013.8 |
| 20260901225035 | 85 | 147 | 7.0 | 14.0 | 0.00 | 0.00 | 0.00 | 72 | 1013.8 |
| 20260901224602 | 85 | 126 | 6.0 | 15.0 | 0.00 | 0.00 | 0.00 | 72 | 1013.8 |
| 20260901224037 | 86 | 126 | 6.0 | 15.0 | 0.00 | 0.00 | 0.00 | 70 | 1013.8 |
| 20260901223537 | 86 | 125 | 7.0 | 15.0 | 0.00 | 0.00 | 0.00 | 68 | 1013.8 |
| 20260901223055 | 88 | 136 | 7.0 | 14.0 | 0.00 | 0.00 | 0.00 | 66 | 1013.8 |
| 20260901222536 | 89 | 109 | 7.0 | 13.0 | 0.00 | 0.00 | 0.00 | 63 | 1013.7 |
| 20260901222037 | 90 | 121 | 7.0 | 14.0 | 0.00 | 0.00 | 0.00 | 61 | 1013.7 |
| 20260901221555 | 92 | 121 | 7.0 | 14.0 | 0.00 | 0.00 | 0.00 | 57 | 1013.5 |
| 20260901221036 | 94 | 127 | 7.0 | 14.0 | 0.00 | 0.00 | 0.00 | 54 | 1013.4 |
| 20260901220536 | 94 | 125 | 5.0 | 11.0 | 0.00 | 0.00 | 0.00 | 51 | 1013.2 |
| 20260901220118 | 94 | 87 | 4.0 | 8.0 | 0.00 | 0.00 | 0.00 | 51 | 1013.4 |
| 20260901215536 | 94 | 115 | 2.0 | 11.0 | 0.00 | 0.00 | 0.00 | 51 | 1013.3 |
| 20260901215035 | 94 | 66 | 3.0 | 12.0 | 0.00 | 0.00 | 0.00 | 51 | 1013.4 |
| 20260901214558 | 94 | 44 | 5.0 | 12.0 | 0.00 | 0.00 | 0.00 | 50 | 1013.5 |
| 20260901214036 | 94 | 35 | 5.0 | 11.0 | 0.00 | 0.00 | 0.00 | 50 | 1013.4 |
| 20260901213537 | 95 | 52 | 4.0 | 12.0 | 0.00 | 0.00 | 0.00 | 49 | 1013.4 |
| 20260901213105 | 95 | 20 | 7.0 | 12.0 | 0.00 | 0.00 | 0.00 | 50 | 1013.4 |
| 20260901212537 | 95 | 55 | 7.0 | 12.0 | 0.00 | 0.00 | 0.00 | 50 | 1013.5 |
| 20260901212036 | 95 | 41 | 5.0 | 10.0 | 0.00 | 0.00 | 0.00 | 49 | 1013.5 |
| 20260901211554 | 95 | 115 | 4.0 | 11.0 | 0.00 | 0.00 | 0.00 | 49 | 1013.6 |
| 20260901211036 | 95 | 86 | 2.0 | 11.0 | 0.00 | 0.00 | 0.00 | 49 | 1013.6 |
| 20260901210537 | 95 | 44 | 3.0 | 11.0 | 0.00 | 0.00 | 0.00 | 49 | 1013.6 |
| 20260901210106 | 95 | 57 | 4.0 | 7.0 | 0.00 | 0.00 | 0.00 | 49 | 1013.7 |
| 20260901205536 | 95 | 42 | 2.0 | 8.0 | 0.00 | 0.00 | 0.00 | 50 | 1013.7 |
| 20260901205038 | 95 | 16 | 2.0 | 11.0 | 0.00 | 0.00 | 0.00 | 50 | 1013.8 |
| 20260901204601 | 95 | 26 | 7.0 | 11.0 | 0.00 | 0.00 | 0.00 | 49 | 1013.8 |
| 20260901204037 | 95 | 333 | 4.0 | 9.0 | 0.00 | 0.00 | 0.00 | 50 | 1013.8 |
| 20260901203536 | 95 | 24 | 3.0 | 12.0 | 0.00 | 0.00 | 0.00 | 50 | 1014.0 |
| 20260901203056 | 96 | 71 | 6.0 | 12.0 | 0.00 | 0.00 | 0.00 | 50 | 1014.1 |
| 20260901202537 | 95 | 23 | 1.0 | 10.0 | 0.00 | 0.00 | 0.00 | 50 | 1014.1 |
| 20260901202038 | 95 | 12 | 6.0 | 14.0 | 0.00 | 0.00 | 0.00 | 50 | 1014.2 |
| 20260901201558 | 95 | 15 | 9.0 | 15.0 | 0.00 | 0.00 | 0.00 | 49 | 1014.2 |
| 20260901201036 | 95 | 19 | 10.0 | 15.0 | 0.00 | 0.00 | 0.00 | 49 | 1014.3 |
| 20260901200535 | 95 | 15 | 9.0 | 13.0 | 0.00 | 0.00 | 0.00 | 49 | 1014.3 |
| 20260901200052 | 96 | 51 | 5.0 | 13.0 | 0.00 | 0.00 | 0.00 | 49 | 1014.3 |
| 20260901195536 | 95 | 62 | 3.0 | 13.0 | 0.00 | 0.00 | 0.00 | 50 | 1014.4 |
| 20260901195036 | 95 | 29 | 4.0 | 13.0 | 0.00 | 0.00 | 0.00 | 51 | 1014.5 |
| 20260901194605 | 95 | 346 | 4.0 | 10.0 | 0.00 | 0.00 | 0.00 | 51 | 1014.5 |
| 20260901194036 | 95 | 51 | 4.0 | 14.0 | 0.00 | 0.00 | 0.00 | 51 | 1014.6 |
| 20260901193536 | 95 | 73 | 3.0 | 14.0 | 0.00 | 0.00 | 0.00 | 52 | 1014.6 |
| 20260901193105 | 94 | 54 | 3.0 | 14.0 | 0.00 | 0.00 | 0.00 | 52 | 1014.7 |
| 20260901192536 | 94 | 245 | 4.0 | 12.0 | 0.00 | 0.00 | 0.00 | 52 | 1014.7 |
| 20260901192037 | 94 | 40 | 5.0 | 12.0 | 0.00 | 0.00 | 0.00 | 52 | 1014.7 |
| 20260901191555 | 95 | 92 | 4.0 | 12.0 | 0.00 | 0.00 | 0.00 | 51 | 1014.8 |
| 20260901191035 | 95 | 360 | 4.0 | 11.0 | 0.00 | 0.00 | 0.00 | 52 | 1014.9 |
| 20260901190536 | 94 | 107 | 4.0 | 11.0 | 0.00 | 0.00 | 0.00 | 52 | 1014.9 |
| 20260901190050 | 94 | 115 | 4.0 | 10.0 | 0.00 | 0.00 | 0.00 | 52 | 1015.0 |
| 20260901185537 | 93 | 24 | 2.0 | 11.0 | 0.00 | 0.00 | 0.00 | 53 | 1014.9 |